Regional Weather Roundup
Issued by NWS Sterling, VA

Home | Current Version | Previous Version | Text Only | Print | Product List | Glossary Off
Versions: 1 2 3 4 5 6 7 8 9 10 11 12 13 14 15 16 17 18 19 20 21 22 23 24 25 26 27 28 29 30 31 32 33 34 35 36 37

000
ASUS41 KLWX 230510
RWRLWX

REGIONAL WEATHER ROUNDUP
NATIONAL WEATHER SERVICE BALTIMORE MD/WASHINGTON DC
100 AM EDT THU OCT 23 2014

Note: "FAIR" indicates few or no clouds below 12,000 feet
with no significant weather and/or obstructions to visibility.
 TC=TEMPERATURE CELSIUS

 * =Non NWS site. Station does not report precipitation (e.g. rain,
    snow, etc.), thunder, or fog.

DCZ001-MDZ009-015-VAZ040>042-051-053>054-230600-
WASHINGTON METRO

CITY           SKY/WX    TMP DP  RH WIND       PRES   REMARKS
WASHINGTON NAT MOCLDY    55  41  59 NW17G24   29.92F
DULLES         PTCLDY    50  42  74 NW17      29.94F
ANDREWS AFB    MOCLDY    52  43  71 NW18G26   29.89F
FT BELVOIR     PTCLDY    53  42  68 NW18G25   29.93F
QUANTICO       MOCLDY    53  42  66 NW18G29   29.93F
COLLEGE PARK*  CLOUDY    54  43  66 NW10      29.90F
LEESBURG*      PTCLDY    52  45  76 NW15G25   29.95F
MANASSAS*      MOCLDY    52  43  71 NW15G23   29.95F
GAITHERSBURG*  CLOUDY    50  41  71 NW15G21   29.95F

$$

MDZ006>007-011-014-230600-
BALTIMORE METRO

CITY           SKY/WX    TMP DP  RH WIND       PRES   REMARKS
BWI AIRPORT    CLOUDY    53  43  68 NW12G20   29.88F
MD SCIENCE CTR   N/A     54  43  66 MISG      29.88F
MARTIN STATE   CLOUDY    54  46  76 NW8G23    29.87F
ANNAPOLIS      CLOUDY    55  45  68 NW13G23   29.86F
FORT MEADE*    CLOUDY    52  43  71 NW12      29.92S

$$

MDZ012-015-019>023-230600-
MARYLAND EASTERN SHORE

CITY           SKY/WX    TMP DP  RH WIND       PRES   REMARKS
OCEAN CITY     CLOUDY    53  47  79 NW13G24   29.77F
SALISBURY      CLOUDY    56  46  69 NW16G28   29.80F
BAY BRIDGE AP*   N/A     54  45  71 NW15G28   29.86F
CAMBRIDGE*     CLOUDY    55  45  67 NW17      29.84S VSB<1/4
EASTON*        CLOUDY    56  48  76 N18G29    29.87F

$$

MDZ017>025-230600-
SOUTHERN MARYLAND

CITY           SKY/WX    TMP DP  RH WIND       PRES   REMARKS
PATUXENT RIVER CLOUDY    53  45  74 NW21      29.86F
ST INIGOES     CLOUDY    54  43  66 NW10G21   29.87F
LEONARDTOWN*   CLOUDY    52  43  71 NW12G20   29.89F

$$

MDZ003>005-230600-
NORTH CENTRAL MARYLAND

CITY           SKY/WX    TMP DP  RH WIND       PRES   REMARKS
FREDERICK*     PTCLDY    55  41  58 NW8G18    29.97F
HAGERSTOWN APT MOCLDY    50  40  68 NW16G24   29.97F
WESTMINSTER*   CLOUDY    50  45  81 NW8G16    29.91S

$$

MDZ501>502-230600-
WESTERN MARYLAND

CITY           SKY/WX    TMP DP  RH WIND       PRES   REMARKS
OAKLAND*       FOG       37 N/A N/A NW10G21   30.07F VSB 1/2
CUMBERLAND*    CLOUDY    52  41  66 NW10G16   30.10F

$$

VAZ025>031-230600-
SHENANDOAH VALLEY

CITY           SKY/WX    TMP DP  RH WIND       PRES   REMARKS
WINCHESTER*    CLOUDY    52  37  58 NW13G18   30.00S
FRONT ROYAL*   CLOUDY    50  41  71 NW9G17    30.00F
LURAY*         CLOUDY    54  43  66 N9G17     30.02F
NEW MARKET*    CLOUDY    50  40  69 CALM      30.04S
STAUNTON*      CLOUDY    50  39  66 NW5       30.06S
WAYNESBORO*    CLOUDY    45  39  78 W5        30.03F

$$

WVZ021-048>050-054>055-230600-
EASTERN WEST VIRGINIA PANHANDLE

CITY           SKY/WX    TMP DP  RH WIND       PRES   REMARKS
MARTINSBURG    PTCLDY    51  39  63 NW12G21   29.99F
PETERSBURG*    CLOUDY    51  40  65 NW10G17   30.09F

$$

VAZ036>039-050-230600-
CENTRAL FOOTHILLS

CITY           SKY/WX    TMP DP  RH WIND       PRES   REMARKS
CHARLOTTESVILL CLEAR     53  39  59 VRB7      29.99S
CULPEPER*      CLEAR     54  43  66 NW9G18    29.97F
ORANGE*        CLEAR     50  41  71 W3        29.98S
GORDONSVILLE*  MOCLDY    51  40  66 NW8       29.96F
WARRENTON*     MOCLDY    52  47  81 NW12G22   29.95F

$$

VAZ055>057-230600-
NORTH AND CENTRAL PIEDMONT

CITY           SKY/WX    TMP DP  RH WIND       PRES   REMARKS
FREDERICKSBRG* CLOUDY    53  43  68 NW15      29.94F
STAFFORD*      CLOUDY    51  41  68 NW15G24   29.98F

$$

NCZ024-NYZ072-PAZ021-071-VAZ022-071-230600-
OTHER REGIONAL OBSERVATIONS

CITY           SKY/WX    TMP DP  RH WIND       PRES   REMARKS
NEW YORK CITY  CLOUDY    51  47  86 NE12G25   29.75F
PHILADELPHIA   LGT RAIN  52  47  83 NW18      29.77F
PITTSBURGH     CLOUDY    45  40  82 NW8       30.16S
ROANOKE        CLEAR     50  38  63 NW16      30.10F
RICHMOND       CLOUDY    54  42  64 NW12      29.94F
RALEIGH        CLEAR     48  40  73 CALM      30.03R

$$

ANZ530>537-230600-
MARINE OBSERVATIONS

STATION/POSITION TIME  TEMP    WIND        PRES
                       AIR SEA DIR/SP/G
                 (UTC) (F)     (DEG/KT/KT) (MB)
THOMAS PT LIGHT  0500   54 62  320/ 19/ 22 1012.0F
BALT KEY BRIDGE  0500   55     310/ 20/ 25 1011.2S
COVE POINT       0500   54     330/ 18/ 25 1010.9S
LEWISETTA        0500   55 61  320/ 17/ 21 1011.6S
SOLOMONS ISLAND  0500      65                N/A
PINEY POINT      0500          340/ 26/ 28   N/A

$$




USA.gov is the U.S. government's official web portal to all federal, state and local government web resources and services.